{"data":{"norad_id":67075,"epoch":"2026-09-20T16:24:03.728736Z","epoch_age_seconds":66455,"freshness":"FRESH","line1":"1 67075U 25298A   26263.68337649  .00003251  00000+0  28012-3 0  9992","line2":"2 67075  70.0002 242.8829 0003631 269.8768  90.1975 14.98333836 42421","mean_motion":14.98333836,"eccentricity":0.0003631,"inclination_deg":70.0002,"raan_deg":242.8829,"arg_perigee_deg":269.8768,"mean_anomaly_deg":90.1975,"bstar":0.00028012,"rev_number":4242,"period_min":96.106753074753,"perigee_km":569.52041772473,"apogee_km":574.56763918759,"semimajor_km":6950.1810284562,"source":"CELESTRAK","updated_at":"2026-09-21T09:00:36.097243Z"}}